Weather History for Watford City, ND

Change the Weather History Date:

Wednesday, November 6, 2013

  Actual Average (KISN) Record (KISN)
Temperature  
Mean Temperature 26 °F 33 °F  
Max Temperature 39 °F 44 °F 72 °F (2009)
Min Temperature 14 °F 21 °F -15 °F (1991)
Degree Days  
Heating Degree Days 38 32  
Month to date heating degree days 186  
Since 1 July heating degree days 1213  
Cooling Degree Days 0 0  
Month to date cooling degree days 0  
Year to date cooling degree days 456  
Moisture  
Dew Point 16 °F    
Average Humidity 76    
Maximum Humidity 93    
Minimum Humidity 42    
Precipitation  
Precipitation 0.00 in 0.02 in 0.93 in (1901)
Month to date precipitation 0.15  
Year to date precipitation 13.25  
Sea Level Pressure  
Sea Level Pressure 30.05 in    
Wind  
Wind Speed 4 mph (WSW)    
Max Wind Speed 15 mph    
Max Gust Speed 21 mph    
Visibility 10 miles    
Events      
T = Trace of Precipitation, MM = Missing Value Source: NWS Daily Summary

Daily Weather History Graph

Daily Weather History Graph

Search for Another Location

Airport:

Trip Planner

Search our weather history database for the weather conditions in past years. The results will help you decide how hot, cold, wet, or windy it might be!

Date:

Astronomy

Nov. 06, 2013 Rise Set
Actual Time 7:45 AM CST 5:27 PM CST
Civil Twilight 7:12 AM CST 5:59 PM CST
Nautical Twilight 6:35 AM CST 6:36 PM CST
Astronomical Twilight 5:59 AM CST 7:12 PM CST
Moon 11:08 AM CST (11/6) 8:28 PM CST (11/6)
Length of Visible Light 10h 47m
Length of Day
9h 41m
Waxing Crescent, 14% of the Moon is Illuminated
Nov 6
Waxing Crescent
Nov 9
First Quarter
Nov 17
Full
Nov 25
Last Quarter
Dec 2
New

Hourly Weather History & Observations

Time (CST) Temp. Windchill Dew Point Humidity Pressure Visibility Wind Dir Wind Speed Gust Speed Precip Events Conditions
12:35 AM 17.6 °F - 15.8 °F 93% 30.00 in 10.0 mi Calm Calm - N/A   Clear
12:55 AM 17.6 °F 12.3 °F 14.0 °F 86% 30.00 in 10.0 mi South 3.5 mph - N/A   Clear
1:15 AM 19.4 °F 11.5 °F 15.8 °F 86% 30.00 in 10.0 mi SSW 5.8 mph - N/A   Scattered Clouds
1:35 AM 17.6 °F - 14.0 °F 86% 30.00 in 10.0 mi Calm Calm - N/A   Scattered Clouds
1:55 AM 17.6 °F - 14.0 °F 86% 29.99 in 10.0 mi Calm Calm - N/A   Partly Cloudy
2:15 AM 17.6 °F - 14.0 °F 86% 29.99 in 10.0 mi Calm Calm - N/A   Clear
2:35 AM 15.8 °F - 12.2 °F 86% 29.99 in 10.0 mi Calm Calm - N/A   Clear
2:55 AM 15.8 °F 8.6 °F 14.0 °F 93% 29.99 in 10.0 mi SW 4.6 mph - N/A   Clear
3:15 AM 15.8 °F - 12.2 °F 86% 29.99 in 10.0 mi Calm Calm - N/A   Clear
3:35 AM 15.8 °F 8.6 °F 12.2 °F 86% 29.99 in 10.0 mi SSW 4.6 mph - N/A   Clear
3:55 AM 15.8 °F 10.2 °F 12.2 °F 86% 29.99 in 10.0 mi SSW 3.5 mph - N/A   Clear
4:15 AM 15.8 °F 7.2 °F 14.0 °F 93% 29.99 in 10.0 mi WSW 5.8 mph - N/A   Clear
4:35 AM 15.8 °F - 12.2 °F 86% 29.99 in 10.0 mi Calm Calm - N/A   Clear
4:55 AM 15.8 °F 7.2 °F 14.0 °F 93% 29.99 in 10.0 mi SSW 5.8 mph - N/A   Clear
5:15 AM 17.6 °F 9.3 °F 14.0 °F 86% 29.99 in 10.0 mi SSW 5.8 mph - N/A   Clear
5:35 AM 15.8 °F 10.2 °F 14.0 °F 93% 29.99 in 10.0 mi SW 3.5 mph - N/A   Clear
5:55 AM 15.8 °F - 14.0 °F 93% 29.99 in 10.0 mi Calm Calm - N/A   Clear
6:15 AM 15.8 °F 10.2 °F 12.2 °F 86% 29.99 in 10.0 mi SSW 3.5 mph - N/A   Clear
6:35 AM 15.8 °F 8.6 °F 14.0 °F 93% 29.99 in 10.0 mi South 4.6 mph - N/A   Clear
6:55 AM 14.0 °F 6.5 °F 10.4 °F 86% 29.98 in 10.0 mi NNE 4.6 mph - N/A   Clear
7:15 AM 14.0 °F 6.5 °F 12.2 °F 93% 29.99 in 10.0 mi West 4.6 mph - N/A   Clear
7:35 AM 14.0 °F 8.2 °F 10.4 °F 86% 29.99 in 10.0 mi SSW 3.5 mph - N/A   Clear
7:55 AM 15.8 °F 5.1 °F 14.0 °F 93% 30.00 in 10.0 mi SW 8.1 mph - N/A   Clear
8:15 AM 17.6 °F - 14.0 °F 86% 30.00 in 10.0 mi Calm Calm - N/A   Clear
8:35 AM 19.4 °F - 15.8 °F 86% 30.00 in 10.0 mi Calm Calm - N/A   Clear
8:55 AM 23.0 °F - 17.6 °F 80% 30.00 in 10.0 mi Calm Calm - N/A   Mostly Cloudy
9:15 AM 23.0 °F 17.0 °F 19.4 °F 86% 30.01 in 10.0 mi West 4.6 mph - N/A   Overcast
9:35 AM 24.8 °F 17.9 °F 21.2 °F 86% 30.02 in 10.0 mi WSW 5.8 mph - N/A   Overcast
9:55 AM 26.6 °F 19.1 °F 23.0 °F 86% 30.02 in 10.0 mi WSW 6.9 mph - N/A   Overcast
10:15 AM 26.6 °F 16.8 °F 23.0 °F 86% 30.02 in 10.0 mi SW 10.4 mph - N/A   Overcast
10:35 AM 28.4 °F 19.7 °F 23.0 °F 80% 30.02 in 10.0 mi SW 9.2 mph - N/A   Mostly Cloudy
10:55 AM 28.4 °F 19.1 °F 23.0 °F 80% 30.03 in 10.0 mi SW 10.4 mph - N/A   Partly Cloudy
11:15 AM 32.0 °F 25.6 °F 24.8 °F 75% 30.03 in 10.0 mi SW 6.9 mph - N/A   Clear
11:35 AM 33.8 °F 26.4 °F 23.0 °F 65% 30.03 in 10.0 mi West 9.2 mph - N/A   Clear
11:55 AM 35.6 °F 28.0 °F 19.4 °F 52% 30.03 in 10.0 mi West 10.4 mph - N/A   Clear
12:15 PM 37.4 °F 30.8 °F 17.6 °F 45% 30.03 in 10.0 mi WNW 9.2 mph - N/A   Clear
12:35 PM 37.4 °F 30.3 °F 19.4 °F 48% 30.03 in 10.0 mi West 10.4 mph - N/A   Clear
12:55 PM 37.4 °F 29.8 °F 17.6 °F 45% 30.04 in 10.0 mi West 11.5 mph 18.4 mph N/A   Clear
1:15 PM 37.4 °F 30.3 °F 17.6 °F 45% 30.04 in 10.0 mi West 10.4 mph - N/A   Clear
1:35 PM 37.4 °F 30.8 °F 17.6 °F 45% 30.04 in 10.0 mi WNW 9.2 mph - N/A   Clear
1:55 PM 37.4 °F 30.8 °F 19.4 °F 48% 30.04 in 10.0 mi WNW 9.2 mph - N/A   Clear
2:15 PM 37.4 °F 30.3 °F 19.4 °F 48% 30.05 in 10.0 mi WNW 10.4 mph - N/A   Clear
2:35 PM 39.2 °F 31.2 °F 19.4 °F 45% 30.06 in 10.0 mi WNW 13.8 mph - N/A   Clear
2:55 PM 39.2 °F 30.8 °F 17.6 °F 42% 30.06 in 10.0 mi NW 15.0 mph 20.7 mph N/A   Clear
3:15 PM 37.4 °F 28.9 °F 17.6 °F 45% 30.07 in 10.0 mi NW 13.8 mph 18.4 mph N/A   Clear
3:35 PM 37.4 °F 29.3 °F 17.6 °F 45% 30.07 in 10.0 mi NW 12.7 mph 19.6 mph N/A   Clear
3:55 PM 35.6 °F 27.1 °F 19.4 °F 52% 30.09 in 10.0 mi NW 12.7 mph - N/A   Clear
4:15 PM 35.6 °F 27.5 °F 19.4 °F 52% 30.10 in 10.0 mi NW 11.5 mph 17.3 mph N/A   Clear
4:35 PM 33.8 °F 24.8 °F 19.4 °F 56% 30.11 in 10.0 mi NNW 12.7 mph 16.1 mph N/A   Clear
4:55 PM 32.0 °F 23.0 °F 19.4 °F 60% 30.12 in 10.0 mi NNW 11.5 mph - N/A   Clear
5:15 PM 30.2 °F 23.4 °F 19.4 °F 64% 30.13 in 10.0 mi North 6.9 mph - N/A   Clear
5:35 PM 26.6 °F 21.2 °F 19.4 °F 74% 30.13 in 10.0 mi NNW 4.6 mph - N/A   Clear
5:55 PM 24.8 °F - 17.6 °F 74% 30.14 in 10.0 mi Calm Calm - N/A   Clear
6:15 PM 24.8 °F - 17.6 °F 74% 30.15 in 10.0 mi Calm Calm - N/A   Clear
6:35 PM 23.0 °F 18.4 °F 15.8 °F 74% 30.16 in 10.0 mi NW 3.5 mph - N/A   Clear
6:55 PM 21.2 °F - 15.8 °F 80% 30.16 in 9.0 mi Calm Calm - N/A   Clear
7:15 PM 19.4 °F 14.3 °F 15.8 °F 86% 30.17 in 10.0 mi SSW 3.5 mph - N/A   Clear
7:35 PM 17.6 °F 10.7 °F 14.0 °F 86% 30.17 in 10.0 mi South 4.6 mph - N/A   Clear
7:55 PM 17.6 °F 12.3 °F 15.8 °F 93% 30.17 in 10.0 mi SW 3.5 mph - N/A   Clear
8:15 PM 19.4 °F - 15.8 °F 86% 30.17 in 10.0 mi Calm Calm - N/A   Clear
8:35 PM 17.6 °F 12.3 °F 14.0 °F 86% 30.18 in 10.0 mi SW 3.5 mph - N/A   Clear
8:55 PM 17.6 °F 10.7 °F 14.0 °F 86% 30.19 in 8.0 mi WSW 4.6 mph - N/A   Clear
9:15 PM 15.8 °F 8.6 °F 14.0 °F 93% 30.19 in 10.0 mi SW 4.6 mph - N/A   Clear
9:35 PM 15.8 °F 6.1 °F 14.0 °F 93% 30.19 in 10.0 mi WSW 6.9 mph - N/A   Clear